TAM4671 SBFZ-SBBE

Flight info

Callsign TAM4671
Flight time 1h 32m
Altitude 36000
Route ISUPI UZ81 OBLEV DCT LIVED
Aircraft A320/M-SDE3FGHIRWY/LB1

Departure

Time 2026-04-27 16:21
Airport Pinto Martins International Airport (SBFZ)

Arrival

Time 2026-04-27 17:53
Airport Val de Cans/Júlio Cezar Ribeiro International Airport (SBBE)
Time Latitude Longitude Altitude Speed Heading
2026-04-27 16:04 -3.77802 -38.53528 85 ft 0 kts 195°
2026-04-27 16:13 -3.77797 -38.53527 85 ft 2 kts 195°
2026-04-27 16:14 -3.77766 -38.53518 82 ft 2 kts 195°
2026-04-27 16:14 -3.77734 -38.53510 87 ft 2 kts 209°
2026-04-27 16:15 -3.77724 -38.53483 82 ft 2 kts 282°
2026-04-27 16:15 -3.77725 -38.53478 83 ft 0 kts 283°
2026-04-27 16:16 -3.77723 -38.53484 82 ft 3 kts 283°
2026-04-27 16:17 -3.77699 -38.53575 82 ft 9 kts 285°
2026-04-27 16:17 -3.77662 -38.53713 84 ft 12 kts 285°
2026-04-27 16:18 -3.77615 -38.53886 85 ft 14 kts 285°
2026-04-27 16:18 -3.77558 -38.54095 87 ft 17 kts 285°
2026-04-27 16:19 -3.77526 -38.54212 87 ft 17 kts 286°
2026-04-27 16:19 -3.77497 -38.54336 88 ft 19 kts 283°
2026-04-27 16:20 -3.77350 -38.54304 90 ft 0 kts 103°
2026-04-27 16:20 -3.77361 -38.54263 90 ft 27 kts 104°
2026-04-27 16:20 -3.77695 -38.53015 91 ft 145 kts 105°
2026-04-27 16:21 -3.77971 -38.52019 577 ft 150 kts 104°
2026-04-27 16:21 -3.78877 -38.48794 1872 ft 186 kts 105°
2026-04-27 16:22 -3.79206 -38.47448 2177 ft 212 kts 94°
2026-04-27 16:22 -3.77381 -38.44935 3094 ft 265 kts 24°
2026-04-27 16:22 -3.75559 -38.44593 3855 ft 277 kts 358°
2026-04-27 16:23 -3.73707 -38.45141 4713 ft 284 kts 327°
2026-04-27 16:23 -3.70913 -38.48002 6424 ft 291 kts 311°
2026-04-27 16:23 -3.69569 -38.49536 7222 ft 295 kts 311°
2026-04-27 16:24 -3.68210 -38.51089 8063 ft 297 kts 311°
2026-04-27 16:24 -3.65490 -38.54261 9677 ft 304 kts 305°
2026-04-27 16:25 -3.63620 -38.58184 10552 ft 333 kts 292°
2026-04-27 16:25 -3.61786 -38.62612 11592 ft 349 kts 292°
2026-04-27 16:26 -3.59884 -38.67170 12870 ft 358 kts 291°
2026-04-27 16:26 -3.57958 -38.71782 14125 ft 364 kts 291°
2026-04-27 16:27 -3.55991 -38.76497 15310 ft 369 kts 292°
2026-04-27 16:27 -3.52972 -38.83706 16967 ft 379 kts 292°
2026-04-27 16:28 -3.50911 -38.88621 18074 ft 385 kts 292°
2026-04-27 16:28 -3.48833 -38.93574 19014 ft 391 kts 292°
2026-04-27 16:29 -3.45639 -39.01220 20431 ft 402 kts 292°
2026-04-27 16:30 -3.43456 -39.06430 21348 ft 409 kts 292°
2026-04-27 16:30 -3.41246 -39.11705 22251 ft 416 kts 292°
2026-04-27 16:31 -3.37855 -39.19818 23614 ft 426 kts 292°
2026-04-27 16:31 -3.35551 -39.25312 24376 ft 431 kts 292°
2026-04-27 16:32 -3.33216 -39.30880 25127 ft 435 kts 292°
2026-04-27 16:32 -3.32057 -39.33650 25489 ft 437 kts 293°
2026-04-27 16:33 -3.29726 -39.39315 26231 ft 441 kts 289°
2026-04-27 16:33 -3.28973 -39.42309 26577 ft 443 kts 278°
2026-04-27 16:33 -3.28738 -39.45348 26913 ft 445 kts 269°
2026-04-27 16:33 -3.28935 -39.48453 27245 ft 447 kts 265°
2026-04-27 16:34 -3.29174 -39.51569 27571 ft 449 kts 265°
2026-04-27 16:34 -3.29405 -39.54696 27898 ft 451 kts 265°
2026-04-27 16:34 -3.29634 -39.57844 28221 ft 453 kts 265°
2026-04-27 16:34 -3.29861 -39.60998 28563 ft 455 kts 266°
2026-04-27 16:35 -3.30087 -39.64169 28906 ft 457 kts 266°
2026-04-27 16:35 -3.30314 -39.67311 29244 ft 459 kts 266°
2026-04-27 16:35 -3.30781 -39.73721 29902 ft 464 kts 266°
2026-04-27 16:36 -3.31017 -39.76951 30194 ft 466 kts 266°
2026-04-27 16:36 -3.31255 -39.80193 30465 ft 468 kts 266°
2026-04-27 16:36 -3.31495 -39.83457 30719 ft 471 kts 266°
2026-04-27 16:36 -3.31733 -39.86735 30978 ft 473 kts 266°
2026-04-27 16:37 -3.31972 -39.90030 31248 ft 475 kts 266°
2026-04-27 16:37 -3.32214 -39.93331 31631 ft 474 kts 265°
2026-04-27 16:37 -3.32455 -39.96619 32029 ft 473 kts 265°
2026-04-27 16:37 -3.32693 -39.99902 32433 ft 472 kts 265°
2026-04-27 16:38 -3.32927 -40.03137 32835 ft 471 kts 265°
2026-04-27 16:38 -3.33163 -40.06411 33200 ft 472 kts 265°
2026-04-27 16:38 -3.33401 -40.09691 33598 ft 471 kts 265°
2026-04-27 16:38 -3.33638 -40.12970 33992 ft 471 kts 265°
2026-04-27 16:39 -3.33876 -40.16241 34335 ft 470 kts 265°
2026-04-27 16:39 -3.34110 -40.19506 34667 ft 470 kts 265°
2026-04-27 16:39 -3.34343 -40.22733 34983 ft 470 kts 265°
2026-04-27 16:39 -3.34582 -40.25988 35291 ft 470 kts 265°
2026-04-27 16:40 -3.34825 -40.29259 35509 ft 472 kts 266°
2026-04-27 16:40 -3.35067 -40.32541 35766 ft 473 kts 266°
2026-04-27 16:40 -3.35304 -40.35829 35918 ft 474 kts 266°
2026-04-27 16:41 -3.35770 -40.42407 35946 ft 471 kts 266°
2026-04-27 16:41 -3.36238 -40.48963 35949 ft 472 kts 266°
2026-04-27 16:42 -3.35831 -40.55454 35949 ft 471 kts 283°
2026-04-27 16:42 -3.34490 -40.61887 35948 ft 472 kts 283°
2026-04-27 16:43 -3.33159 -40.68324 35946 ft 472 kts 283°
2026-04-27 16:43 -3.31831 -40.74772 35945 ft 473 kts 283°
2026-04-27 16:44 -3.30516 -40.81198 35952 ft 473 kts 283°
2026-04-27 16:44 -3.29189 -40.87664 35954 ft 474 kts 283°
2026-04-27 16:45 -3.27851 -40.94124 35969 ft 473 kts 282°
2026-04-27 16:45 -3.26519 -41.00536 35969 ft 473 kts 282°
2026-04-27 16:46 -3.25182 -41.07001 35970 ft 472 kts 282°
2026-04-27 16:46 -3.23857 -41.13451 35966 ft 472 kts 282°
2026-04-27 16:47 -3.22536 -41.19849 35961 ft 472 kts 282°
2026-04-27 16:47 -3.21425 -41.25200 35962 ft 472 kts 282°
2026-04-27 16:48 -3.20089 -41.31629 35960 ft 472 kts 282°
2026-04-27 16:48 -3.18756 -41.38068 35958 ft 472 kts 282°
2026-04-27 16:49 -3.16764 -41.47686 35956 ft 472 kts 282°
2026-04-27 16:49 -3.15426 -41.54122 35956 ft 472 kts 282°
2026-04-27 16:50 -3.14091 -41.60575 35960 ft 472 kts 282°
2026-04-27 16:50 -3.12769 -41.66968 35962 ft 472 kts 282°
2026-04-27 16:51 -3.11439 -41.73396 35962 ft 471 kts 282°
2026-04-27 16:51 -3.10098 -41.79824 35958 ft 471 kts 283°
2026-04-27 16:52 -3.08776 -41.86266 35957 ft 472 kts 282°
2026-04-27 16:52 -3.07486 -41.92672 35954 ft 472 kts 282°
2026-04-27 16:53 -3.06177 -41.99132 35957 ft 472 kts 282°
2026-04-27 16:53 -3.04864 -42.05578 35957 ft 472 kts 282°
2026-04-27 16:54 -3.03559 -42.11990 35960 ft 472 kts 282°
2026-04-27 16:54 -3.02286 -42.18449 35959 ft 473 kts 281°
2026-04-27 16:55 -3.01173 -42.24935 35955 ft 472 kts 280°
2026-04-27 16:55 -3.00109 -42.31381 35959 ft 472 kts 280°
2026-04-27 16:56 -2.99005 -42.37853 35966 ft 472 kts 280°
2026-04-27 16:56 -2.97868 -42.44326 35966 ft 471 kts 281°
2026-04-27 16:57 -2.96731 -42.50793 35964 ft 471 kts 281°
2026-04-27 16:57 -2.95612 -42.57206 35962 ft 470 kts 280°
2026-04-27 16:58 -2.94491 -42.63659 35965 ft 470 kts 280°
2026-04-27 16:58 -2.93367 -42.70114 35969 ft 470 kts 280°
2026-04-27 16:59 -2.92247 -42.76523 35966 ft 469 kts 280°
2026-04-27 16:59 -2.91117 -42.82970 35966 ft 469 kts 281°
2026-04-27 17:00 -2.89444 -42.92588 35967 ft 469 kts 281°
2026-04-27 17:01 -2.88321 -42.99019 35967 ft 468 kts 281°
2026-04-27 17:01 -2.87201 -43.05441 35962 ft 468 kts 281°
2026-04-27 17:02 -2.86088 -43.11834 35962 ft 468 kts 281°
2026-04-27 17:02 -2.84971 -43.18250 35962 ft 468 kts 281°
2026-04-27 17:03 -2.83846 -43.24681 35963 ft 468 kts 281°
2026-04-27 17:03 -2.82715 -43.31096 35961 ft 468 kts 281°
2026-04-27 17:04 -2.81601 -43.37474 35963 ft 468 kts 281°
2026-04-27 17:04 -2.80484 -43.43898 35963 ft 468 kts 281°
2026-04-27 17:05 -2.79365 -43.50312 35969 ft 467 kts 281°
2026-04-27 17:05 -2.78245 -43.56677 35968 ft 467 kts 281°
2026-04-27 17:06 -2.77122 -43.63077 35971 ft 466 kts 281°
2026-04-27 17:06 -2.76001 -43.69484 35965 ft 466 kts 281°
2026-04-27 17:07 -2.74883 -43.75878 35960 ft 467 kts 281°
2026-04-27 17:07 -2.73766 -43.82254 35962 ft 467 kts 281°
2026-04-27 17:08 -2.72642 -43.88656 35960 ft 467 kts 281°
2026-04-27 17:08 -2.71520 -43.95025 35960 ft 467 kts 281°
2026-04-27 17:09 -2.70396 -44.01440 35960 ft 467 kts 281°
2026-04-27 17:09 -2.69276 -44.07859 35943 ft 467 kts 281°
2026-04-27 17:10 -2.68158 -44.14235 35936 ft 468 kts 281°
2026-04-27 17:10 -2.67027 -44.20657 35935 ft 468 kts 281°
2026-04-27 17:11 -2.65898 -44.27075 35939 ft 468 kts 281°
2026-04-27 17:11 -2.64214 -44.36674 35943 ft 468 kts 281°
2026-04-27 17:12 -2.62525 -44.46309 35949 ft 468 kts 281°
2026-04-27 17:13 -2.61404 -44.52687 35958 ft 468 kts 281°
2026-04-27 17:13 -2.60272 -44.59102 35964 ft 468 kts 281°
2026-04-27 17:14 -2.59141 -44.65528 35964 ft 468 kts 281°
2026-04-27 17:14 -2.58013 -44.71914 35964 ft 468 kts 281°
2026-04-27 17:15 -2.56880 -44.78336 35965 ft 468 kts 281°
2026-04-27 17:15 -2.55752 -44.84752 35964 ft 468 kts 281°
2026-04-27 17:16 -2.54622 -44.91173 35963 ft 468 kts 281°
2026-04-27 17:16 -2.53495 -44.97587 35964 ft 468 kts 281°
2026-04-27 17:17 -2.52370 -45.03977 35966 ft 468 kts 281°
2026-04-27 17:17 -2.51240 -45.10403 35962 ft 468 kts 281°
2026-04-27 17:18 -2.49529 -45.20045 35966 ft 469 kts 281°
2026-04-27 17:18 -2.48396 -45.26467 35965 ft 469 kts 281°
2026-04-27 17:19 -2.47270 -45.32856 35959 ft 469 kts 281°
2026-04-27 17:19 -2.46134 -45.39293 35961 ft 469 kts 281°
2026-04-27 17:20 -2.45001 -45.45721 35961 ft 469 kts 281°
2026-04-27 17:20 -2.43867 -45.52126 35960 ft 469 kts 281°
2026-04-27 17:21 -2.42725 -45.58560 35959 ft 469 kts 281°
2026-04-27 17:21 -2.41582 -45.65008 35954 ft 470 kts 281°
2026-04-27 17:22 -2.40452 -45.71413 35952 ft 471 kts 281°
2026-04-27 17:22 -2.39315 -45.77866 35955 ft 471 kts 281°
2026-04-27 17:23 -2.38167 -45.84331 35956 ft 471 kts 281°
2026-04-27 17:23 -2.37017 -45.90792 35957 ft 471 kts 281°
2026-04-27 17:24 -2.35876 -45.97209 35960 ft 471 kts 281°
2026-04-27 17:24 -2.34730 -46.03662 35965 ft 470 kts 281°
2026-04-27 17:25 -2.33599 -46.10081 35963 ft 470 kts 281°
2026-04-27 17:25 -2.32474 -46.16526 35963 ft 470 kts 281°
2026-04-27 17:26 -2.31325 -46.22974 35962 ft 469 kts 281°
2026-04-27 17:26 -2.30171 -46.29412 35962 ft 469 kts 281°
2026-04-27 17:27 -2.29032 -46.35834 35959 ft 469 kts 281°
2026-04-27 17:27 -2.27910 -46.42219 35957 ft 468 kts 281°
2026-04-27 17:28 -2.26769 -46.48635 35955 ft 468 kts 281°
2026-04-27 17:29 -2.25056 -46.58252 35952 ft 468 kts 281°
2026-04-27 17:29 -2.23915 -46.64689 35578 ft 470 kts 281°
2026-04-27 17:29 -2.23357 -46.67859 35080 ft 468 kts 281°
2026-04-27 17:30 -2.22790 -46.71063 34587 ft 467 kts 281°
2026-04-27 17:30 -2.21651 -46.77466 33457 ft 467 kts 281°
2026-04-27 17:30 -2.21082 -46.80663 32938 ft 464 kts 281°
2026-04-27 17:31 -2.20520 -46.83826 32425 ft 462 kts 281°
2026-04-27 17:31 -2.20148 -46.85925 32090 ft 460 kts 281°
2026-04-27 17:31 -2.19592 -46.89065 31586 ft 457 kts 281°
2026-04-27 17:31 -2.18858 -46.93201 30935 ft 454 kts 281°
2026-04-27 17:32 -2.18304 -46.96302 30461 ft 451 kts 281°
2026-04-27 17:32 -2.17387 -47.01423 29630 ft 447 kts 281°
2026-04-27 17:32 -2.16845 -47.04477 29184 ft 442 kts 281°
2026-04-27 17:33 -2.16309 -47.07487 28740 ft 437 kts 281°
2026-04-27 17:33 -2.15780 -47.10465 28313 ft 433 kts 281°
2026-04-27 17:33 -2.15254 -47.13424 27882 ft 430 kts 281°
2026-04-27 17:33 -2.14738 -47.16329 27451 ft 427 kts 281°
2026-04-27 17:34 -2.14221 -47.19241 27017 ft 425 kts 281°
2026-04-27 17:34 -2.13704 -47.22162 26569 ft 425 kts 281°
2026-04-27 17:34 -2.13170 -47.25155 26103 ft 451 kts 281°
2026-04-27 17:34 -2.12602 -47.28333 25597 ft 475 kts 281°
2026-04-27 17:35 -2.12014 -47.31631 25060 ft 484 kts 281°
2026-04-27 17:35 -2.11428 -47.34912 24512 ft 484 kts 281°
2026-04-27 17:35 -2.10838 -47.38220 23951 ft 481 kts 281°
2026-04-27 17:35 -2.10259 -47.41502 23367 ft 477 kts 281°
2026-04-27 17:36 -2.09684 -47.44756 22772 ft 473 kts 281°
2026-04-27 17:36 -2.09110 -47.47991 22221 ft 469 kts 281°
2026-04-27 17:36 -2.08539 -47.51197 21670 ft 465 kts 281°
2026-04-27 17:36 -2.07974 -47.54371 21118 ft 461 kts 280°
2026-04-27 17:37 -2.07385 -47.57462 20585 ft 457 kts 285°
2026-04-27 17:37 -2.06278 -47.60419 20077 ft 452 kts 295°
2026-04-27 17:37 -2.04994 -47.63276 19554 ft 448 kts 295°
2026-04-27 17:37 -2.03712 -47.66111 19042 ft 445 kts 295°
2026-04-27 17:38 -2.02441 -47.68918 18535 ft 441 kts 294°
2026-04-27 17:38 -2.01179 -47.71708 17991 ft 438 kts 294°
2026-04-27 17:38 -1.99932 -47.74468 17470 ft 434 kts 294°
2026-04-27 17:38 -1.98694 -47.77212 16969 ft 431 kts 294°
2026-04-27 17:39 -1.97484 -47.79900 16472 ft 427 kts 294°
2026-04-27 17:39 -1.96268 -47.82603 15986 ft 424 kts 294°
2026-04-27 17:39 -1.95060 -47.85285 15495 ft 421 kts 294°
2026-04-27 17:39 -1.93860 -47.87950 15012 ft 418 kts 294°
2026-04-27 17:40 -1.92672 -47.90585 14528 ft 415 kts 294°
2026-04-27 17:40 -1.91489 -47.93208 14051 ft 411 kts 294°
2026-04-27 17:40 -1.90315 -47.95806 13547 ft 408 kts 295°
2026-04-27 17:40 -1.89151 -47.98381 13054 ft 405 kts 295°
2026-04-27 17:41 -1.87996 -48.00936 12574 ft 402 kts 294°
2026-04-27 17:41 -1.86854 -48.03469 12105 ft 398 kts 294°
2026-04-27 17:41 -1.85719 -48.05984 11642 ft 395 kts 294°
2026-04-27 17:41 -1.84593 -48.08476 11164 ft 392 kts 294°
2026-04-27 17:42 -1.83478 -48.10948 10717 ft 389 kts 294°
2026-04-27 17:42 -1.82371 -48.13403 10239 ft 386 kts 294°
2026-04-27 17:42 -1.81285 -48.15807 9782 ft 383 kts 294°
2026-04-27 17:42 -1.80199 -48.18210 9403 ft 372 kts 294°
2026-04-27 17:43 -1.79179 -48.20473 9229 ft 342 kts 294°
2026-04-27 17:43 -1.78241 -48.22552 9101 ft 315 kts 294°
2026-04-27 17:43 -1.77362 -48.24495 8744 ft 300 kts 294°
2026-04-27 17:43 -1.76508 -48.26383 8168 ft 296 kts 294°
2026-04-27 17:44 -1.75664 -48.28250 7608 ft 292 kts 294°
2026-04-27 17:44 -1.74833 -48.30092 7107 ft 288 kts 295°
2026-04-27 17:44 -1.73864 -48.31832 6856 ft 287 kts 301°
2026-04-27 17:44 -1.72865 -48.33537 6698 ft 288 kts 300°
2026-04-27 17:45 -1.71860 -48.35267 6532 ft 287 kts 300°
2026-04-27 17:45 -1.70859 -48.36995 6375 ft 287 kts 300°
2026-04-27 17:45 -1.69856 -48.38727 6197 ft 286 kts 301°
2026-04-27 17:45 -1.68856 -48.40446 6029 ft 286 kts 301°
2026-04-27 17:46 -1.67868 -48.42145 5861 ft 286 kts 301°
2026-04-27 17:46 -1.66867 -48.43868 5693 ft 285 kts 301°
2026-04-27 17:46 -1.65869 -48.45588 5527 ft 285 kts 301°
2026-04-27 17:46 -1.64874 -48.47307 5364 ft 285 kts 301°
2026-04-27 17:47 -1.63885 -48.49012 5197 ft 282 kts 301°
2026-04-27 17:47 -1.63229 -48.50138 5090 ft 282 kts 301°
2026-04-27 17:47 -1.61913 -48.52383 4868 ft 282 kts 301°
2026-04-27 17:47 -1.60923 -48.54071 4702 ft 276 kts 301°
2026-04-27 17:48 -1.59914 -48.55625 4534 ft 256 kts 312°
2026-04-27 17:48 -1.58592 -48.56707 4302 ft 240 kts 334°
2026-04-27 17:48 -1.57113 -48.57388 3997 ft 228 kts 338°
2026-04-27 17:48 -1.55695 -48.58029 3705 ft 220 kts 338°
2026-04-27 17:49 -1.54307 -48.58658 3431 ft 217 kts 337°
2026-04-27 17:49 -1.52930 -48.59272 3200 ft 214 kts 341°
2026-04-27 17:49 -1.51475 -48.59547 3097 ft 213 kts
2026-04-27 17:49 -1.50033 -48.59298 2929 ft 210 kts 22°
2026-04-27 17:50 -1.48803 -48.58579 2706 ft 208 kts 43°
2026-04-27 17:50 -1.46743 -48.56517 2179 ft 206 kts 45°
2026-04-27 17:50 -1.45753 -48.55517 1951 ft 198 kts 45°
2026-04-27 17:51 -1.44811 -48.54567 1680 ft 185 kts 44°
2026-04-27 17:51 -1.43948 -48.53696 1435 ft 168 kts 44°
2026-04-27 17:51 -1.43157 -48.52898 1231 ft 157 kts 44°
2026-04-27 17:51 -1.42419 -48.52153 1057 ft 143 kts 44°
2026-04-27 17:52 -1.41718 -48.51445 872 ft 141 kts 44°
2026-04-27 17:52 -1.41028 -48.50749 696 ft 140 kts 45°
2026-04-27 17:52 -1.40341 -48.50057 528 ft 139 kts 44°
2026-04-27 17:52 -1.39664 -48.49373 338 ft 137 kts 43°
2026-04-27 17:53 -1.38999 -48.48698 141 ft 137 kts 44°
2026-04-27 17:53 -1.38357 -48.48048 48 ft 116 kts 46°
2026-04-27 17:53 -1.37912 -48.47601 47 ft 67 kts 45°
2026-04-27 17:53 -1.37703 -48.47391 49 ft 18 kts 45°
2026-04-27 17:54 -1.37681 -48.47367 49 ft 3 kts 54°
2026-04-27 17:54 -1.37662 -48.47332 50 ft 8 kts 53°
2026-04-27 17:54 -1.37638 -48.47328 51 ft 5 kts 261°
2026-04-27 17:54 -1.37674 -48.47363 50 ft 9 kts 221°
2026-04-27 17:55 -1.37728 -48.47417 49 ft 13 kts 227°
2026-04-27 17:55 -1.37797 -48.47488 49 ft 16 kts 226°
2026-04-27 17:55 -1.37882 -48.47573 47 ft 20 kts 224°
2026-04-27 17:55 -1.38010 -48.47626 48 ft 22 kts 184°
2026-04-27 17:56 -1.38162 -48.47640 51 ft 22 kts 184°
2026-04-27 17:56 -1.38322 -48.47654 52 ft 23 kts 184°
2026-04-27 17:56 -1.38488 -48.47667 54 ft 24 kts 186°
2026-04-27 17:56 -1.38638 -48.47682 57 ft 14 kts 188°
2026-04-27 17:57 -1.38667 -48.47763 55 ft 15 kts 268°
2026-04-27 17:57 -1.38757 -48.47800 55 ft 17 kts 183°
2026-04-27 17:57 -1.38865 -48.47813 53 ft 12 kts 202°
2026-04-27 17:57 -1.38915 -48.47881 52 ft 9 kts 236°
2026-04-27 17:58 -1.38922 -48.47892 54 ft 0 kts 236°